• Processing (Info)

  • MPEC 2010-G37 : 2010 GF7

    The following Minor Planet Electronic Circular may be linked-to from your own Web pages, but must not otherwise be redistributed electronically.

    A form allowing access to any MPEC is at the bottom of this page.


    Read MPEC 2010-G36 Read MPEC 2010-G38


    M.P.E.C. 2010-G37                                Issued 2010 Apr. 7, 12:45 UT
    
         The Minor Planet Electronic Circulars contain information on unusual
             minor planets and routine data on comets.  They are published
       on behalf of Commission 20 of the International Astronomical Union by the
              Minor Planet Center, Smithsonian Astrophysical Observatory,
                              Cambridge, MA 02138, U.S.A.
    
                 Prepared using the Tamkin Foundation Computer Network
    
                                  MPC@CFA.HARVARD.EDU
           URL https://www.minorplanetcenter.org/iau/mpc.html  ISSN 1523-6714
    
                                       2010 GF7
    
    Observations:
         K10G07F* C2010 04 05.29434 12 46 50.08 +29 11 58.4          18.4   EG037704
         K10G07F  C2010 04 05.30611 12 47 01.05 +29 14 05.7          18.9   EG037704
         K10G07F  C2010 04 05.31795 12 47 12.30 +29 16 17.1          18.6   EG037704
         K10G07F  C2010 04 05.32973 12 47 23.48 +29 18 25.9          18.8   EG037704
         K10G07F  C2010 04 05.34155 12 47 34.85 +29 20 35.5          18.6   EG037704
         K10G07F  C2010 04 06.29641 13 11 54.79 +33 03 57.0          18.1   EG037704
         K10G07F  C2010 04 06.30815 13 12 16.34 +33 07 22.3          18.3   EG037704
         K10G07F  C2010 04 06.32056 13 12 39.32 +33 10 59.6          18.4   EG037704
         K10G07F  C2010 04 06.33304 13 13 02.66 +33 14 37.8          18.6   EG037704
         K10G07F  C2010 04 06.34553 13 13 26.29 +33 18 15.9          18.4   EG037704
         K10G07F  C2010 04 07.06597 13 47 28.95 +37 31 01.2          18.5 R EG037473
         K10G07F  C2010 04 07.06736 13 47 33.93 +37 31 34.6          18.5 R EG037473
         K10G07F  C2010 04 07.14929 13 54 02.47 +38 05 21.9          18.1 R EG037854
         K10G07F  C2010 04 07.15049 13 54 07.22 +38 05 54.9          17.7 R EG037854
         K10G07F  C2010 04 07.15230 13 54 14.62 +38 06 44.3          17.7 R EG037854
         K10G07F KC2010 04 07.23290 13 59 32.70 +38 43 55.2          17.9 R EG037H36
         K10G07F KC2010 04 07.23508 13 59 41.77 +38 44 55.4          18.3 R EG037H36
         K10G07F KC2010 04 07.24060 14 00 04.95 +38 47 26.3          18.3 R EG037H36
         K10G07F KC2010 04 07.24458 14 00 21.62 +38 49 16.3          17.8 R EG037H36
         K10G07F KC2010 04 07.24645 14 00 29.61 +38 50 07.9          17.9 R EG037H36
         K10G07F  C2010 04 07.31032 14 05 21.27 +39 20 36.0          17.2 R EG037926
         K10G07F  C2010 04 07.31130 14 05 25.56 +39 21 02.5          17.4 R EG037926
         K10G07F  C2010 04 07.31226 14 05 29.89 +39 21 29.6          17.2 R EG037926
         K10G07F  C2010 04 07.33948 14 07 32.88 +39 34 06.1          17.1 R EG037926
         K10G07F  C2010 04 07.34043 14 07 37.22 +39 34 32.3          17.5 R EG037926
         K10G07F  C2010 04 07.34138 14 07 41.64 +39 34 59.3          17.5 R EG037926
         K10G07F |C2010 04 07.38506 14 11 01.44 +39 54 34.9          17.8 C EG037H06
         K10G07F |C2010 04 07.38978 14 11 24.24 +39 56 43.8          17.4 C EG037H06
    
    Observer details:
    473 Remanzacco.  Observers L. Donato, V. Gonano, E. Guido, G. Sostero.  0.45-m
        f/4.4 Newtonian reflector + CCD.
    704 Lincoln Laboratory ETS, New Mexico.  Observers M. Blythe, G. Spitz,
        R. Brungard, J. Paige, P. Festler.  1.0-m f/2.15 reflector + CCD.
    854 Sabino Canyon Observatory, Tucson.  Observer J. E. McGaha.  0.36-m f/10.0
        Schmidt-Cassegrain + CCD.
    926 Tenagra II Observatory.  Observers P. R. Holvorcem, M. Schwartz.  Measurer
        P. R. Holvorcem.  0.81-m f/7 Ritchey-Chretien + CCD.
    H06 RAS Observatory, Mayhill.  Observer H. Sato.  0.30-m f/11.9 reflector
        + CCD.
    H36 Sandlot Observatory, Scranton.  Observer G. Hug.  0.56-m reflector + CCD.
    
    Orbital elements:
    2010 GF7                                                 Earth MOID = 0.0062 AU
    Epoch 2010 July 23.0 TT = JDT 2455400.5                 MPC
    M  32.74071              (2000.0)            P               Q
    n   0.45043023     Peri.  215.06554     -0.50172837     +0.86459527
    a   1.6854571      Node    24.85374     -0.77808047     -0.43729989
    e   0.4509449      Incl.    3.72010     -0.37796748     -0.24747491
    P   2.19           H   25.7           G   0.15           U   7
    Residuals in seconds of arc
    100405 704  0.4+  0.2+    100407 473  0.9+  0.6+    100407 926  0.1-  0.3+
    100405 704  0.4-  1.5-    100407 473  1.0+  0.4+    100407 926  1.0-  0.5-
    100405 704  0.4+  0.4+    100407 854  0.5+  0.6+    100407 926  0.5-  0.1-
    100405 704  0.1-  0.6+    100407 854  0.3-  0.3+    100407 926  0.4-  0.2+
    100405 704  0.1-  1.3+    100407 854  1.1+  0.5-    100407 926  0.5-  0.1+
    100406 704  0.0   0.2-    100407 H36  0.5+  0.5-    100407 926  0.3+  0.8+
    100406 704  0.2-  0.4-    100407 H36  0.1-  0.1-    100407 H06 (3.7+  2.2+)
    100406 704  0.3-  0.3-    100407 H36  0.2+  0.9-    100407 H06 (4.9+  3.2+)
    100406 704  0.5-  0.4-    100407 H36  0.9-  0.1-
    100406 704  0.3-  0.6-    100407 H36  0.3+  0.1+
    
    Ephemeris:
    2010 GF7                 a,e,i = 1.69, 0.45, 4                   q = 0.9254
    Date    TT    R. A. (2000) Decl.     Delta      r     Elong.  Phase     V
    2010 04 04    12 29.41   +26 07.7    0.0287   1.024   147.9    31.2    19.4
    2010 04 05    12 41.86   +28 21.8    0.0233   1.020   145.6    33.7    19.0
    2010 04 06    13 02.73   +31 43.8    0.0181   1.015   142.0    37.4    18.5
    2010 04 07    13 43.67   +37 05.9    0.0131   1.010   135.2    44.3    18.0
    2010 04 08    15 23.67   +44 32.4    0.00906  1.006   119.9    59.7    17.6
    2010 04 09    18 53.67   +40 28.7    0.00734  1.001    88.2    91.3    18.3
    2010 04 10    21 15.07   +19 40.2    0.00940  0.997    58.8   120.7    20.5
    2010 04 11    22 10.37   +06 34.7    0.0136   0.993    46.3   133.1    22.4
    2010 04 12    22 36.60   -00 08.1    0.0186   0.989    41.8   137.5    23.6
    2010 04 13    22 51.57   -03 57.6    0.0238   0.985    40.2   138.9    24.3
    2010 04 14    23 01.23   -06 22.6    0.0292   0.981    39.8   139.1    24.7
    
    Sonia Keys                   (C) Copyright 2010 MPC           M.P.E.C. 2010-G37
    

    Read MPEC 2010-G36 Read MPEC 2010-G38


    MPEC number:

    Enter an MPEC number in one of the following forms:

    • 1997-B01 (the full form)
    • J97B01 (the packed version of the full form)
    • B01 (the abbreviated form)